Other Public Products
Issued by NWS Grand Forks, ND

Home | Current Version | Previous Version | Text Only | Print | Product List | Glossary Off
Versions: 1 2 3 4 5 6 7 8 9 10 11 12 13 14 15 16 17 18 19 20 21 22 23 24 25 26 27 28 29 30 31 32 33 34 35 36 37 38 39 40 41 42 43 44 45 46 47 48 49 50

000
FPUS83 KFGF 231110
OPUFGF
PRAIRIE TO PINES WEATHER ROUNDUP
NATIONAL WEATHER SERVICE EASTERN NORTH DAKOTA/GRAND FORKS ND
600 AM CDT WED AUG 23 2017

 **SATELLITE DATA USED TO AUGMENT SKY COVER AT AUTOMATED STATIONS**
 *****  WEATHER ACROSS EASTERN NORTH DAKOTA  *****

CITY           SKY/WX    TMP DP  RH WIND       PRES   REMARKS
GRAND FORKS    FAIR      46  44  93 CALM      30.09S
GRAND FORKS AF FAIR      43  42  96 CALM      30.09S
GRAND CITY NWS NOT AVBL
BUXTON         NOT AVBL
DEVILS LAKE    FAIR      55  49  80 SE7       30.08F
FARGO          FAIR      47  45  93 CALM      30.09S
WAHPETON ARPT  FAIR      46  43  87 CALM      30.11S
$$

 *****  WEATHER ACROSS CENTRAL AND WESTERN NORTH DAKOTA  *****

CITY           SKY/WX    TMP DP  RH WIND       PRES   REMARKS
JAMESTOWN      FAIR      49  46  90 SE3       30.09S
BISMARCK       FAIR      49  47  93 CALM      30.08F
MINOT          FAIR      56  47  71 SE5       30.02F
MINOT AFB      MOCLDY    51  45  81 SE5       30.01F
GARRISON         N/A     55  47  74 S6        30.05F
WILLISTON      FAIR      58  42  55 S3        30.04S
DICKINSON      FAIR      52  42  69 S10       30.06F
HETTINGER      FAIR      54  44  69 E8        30.09F
$$

 *****  OTHER OBSERVATIONS NORTHEAST NORTH DAKOTA  *****

CITY           SKY/WX    TMP DP  RH WIND       PRES   REMARKS
WALHALLA       FAIR      52  52 100 CALM      30.08F
LANGDON        PTSUNNY   50  50 100 S5        30.09F
CAVALIER       PTSUNNY   52  50  93 CALM      30.08S
GRAFTON        CLOUDY    46  46 100 CALM      30.11S
CANDO          PTSUNNY   48  48 100 SE5       30.10R
FORT TOTTEN      N/A     53  43  69 SE3       29.95S
ROLLA          FAIR      45  43  93 S7        30.08S
RUGBY          FAIR      50  48  93 SE5       30.05F
 ***** THE ABOVE OBSERVATIONS ARE NON NWS ARE NOT QUALITY
        CONTROLLED AND MAY MIS-REPORT RAIN FOR SNOW...
$$

 *****  OTHER OBSERVATIONS SOUTHEAST NORTH DAKOTA *****

CITY           SKY/WX    TMP DP  RH WIND       PRES   REMARKS
COOPERSTOWN    FAIR      45  45 100 SE5       30.10F
VALLEY CITY      N/A     46  46 100 CALM      30.11F
OAKES          NOT AVBL
GWINNER        SUNNY     50  48  93 CALM      30.11S
SHEYENNE NWR     N/A     42  42 100 W3        29.95S
BUFFALO        NOT AVBL
WYNDMERE       NOT AVBL
 ***** THE ABOVE OBSERVATIONS ARE NON NWS ARE NOT QUALITY
       CONTROLLED AND MAY MIS-REPORT RAIN FOR SNOW...
$$

  *****  WEATHER ACROSS NORTHERN MINNESOTA  *****

CITY           SKY/WX    TMP DP  RH WIND       PRES   REMARKS
FLAG ISLAND      N/A     55  52  88 CALM      30.06S
WARROAD        FAIR      45  41  87 CALM      30.09R
ROSEAU         HAZE      45  39  81 CALM      30.09R VSB 1/4
HALLOCK        CLOUDY    46  46 100 CALM      30.09S
THF RVR FALLS  FOG       44  44 100 SW3       30.11R VSB 1/2
HALSTAD        NOT AVBL
FOSSTON        FOG       41  39  93 CALM      30.11R VSB 1/4
BAUDETTE       FAIR      45  45 100 SW3       30.08R
WASKISH        FAIR      43  43 100 CALM      30.08S FOG
CROOKSTON      FAIR      45  43  93 CALM      30.11R
$$
  *****  WEATHER ACROSS CENTRAL AND WEST MINNESOTA  *****

CITY           SKY/WX    TMP DP  RH WIND       PRES   REMARKS
BEMIDJI        FAIR      45  45 100 W3        30.09R
PARK RAPIDS    FAIR      48  43  82 CALM      30.09S
WADENA         FAIR      45  45 100 CALM      30.10S
DETROIT LAKES  FAIR      52  46  82 N3        30.12R
MOORHEAD       FAIR      46  43  87 CALM      30.11R
FERGUS FALLS   FAIR      50  50 100 CALM      30.11S
ELBOW LAKE     FAIR      47  47  97 CALM      30.11S
MORRIS MN      FAIR      50  46  87 CALM      30.10S
STAPLES        FAIR      46  45  93 CALM      30.10R
WHEATON        FAIR      50  46  87 CALM      30.13S
$$
  *****  WEATHER ELSEWHERE ACROSS MINNESOTA  *****

CITY           SKY/WX    TMP DP  RH WIND       PRES   REMARKS
DULUTH         FAIR      48  48 100 NW6       30.05R
INTRNTL FALLS  CLOUDY    51  48  89 W3        30.06R
ELY            MOCLDY    50  48  93 CALM      30.04R
CLOQUET        FAIR      48  45  87 NW3       30.06R
BRAINERD       FAIR      45  45 100 CALM      30.09S FOG
HIBBING        MOCLDY    46  46 100 NW3       30.06R
ALEXANDRIA     FAIR      52  49  89 W5        30.12S
SAINT CLOUD    FAIR      48  47  96 CALM      30.09S
MINNEAPOLIS    FAIR      57  49  74 SW5       30.09R
$$

  *****  WEATHER ACROSS SOUTH DAKOTA  *****

CITY           SKY/WX    TMP DP  RH WIND       PRES   REMARKS
SIOUX FALLS    FAIR      51  51 100 CALM      30.14S
BROOKINGS      NOT AVBL
WATERTOWN      FAIR      48  47  96 CALM      30.13S
HURON          FAIR      52  50  93 E3        30.12S
SISSETON         N/A     47  45  93 CALM      30.10S
ABERDEEN       FAIR      43  43 100 S5        30.11F
MITCHELL       FAIR      53  51  93 SE5       30.13S
PIERRE         FAIR      57  50  77 SE10      30.05F
MOBRIDGE       FAIR      55  47  74 E8        30.06F
RAPID CITY     FAIR      56  48  74 SE5       30.05F
$$

  *****  SOME WEATHER IN NEARBY STATES *****

CITY           SKY/WX    TMP DP  RH WIND       PRES   REMARKS
GLASGOW MT     FAIR      58  36  43 E12       29.99F
GREAT FALLS MT FAIR      60  33  36 W6        30.02S
CHEYENNE WY    FAIR      58  40  51 NW6       30.22F
SCOTTSBLUFF NE FAIR      57  53  86 E8        30.11F
OMAHA NE       FAIR      58  54  86 SE3       30.16S
DES MOINES IA  FAIR      56  53  90 W3        30.12F
DAVENPORT IA   FAIR      51  49  92 W7        30.10S
CHICAGO IL     FAIR      60  50  69 W8        30.02R
EAU CLAIRE WI  FAIR      51  48  89 CALM      30.05R
LA CROSSE WI   FAIR      56  53  90 SE3       30.06R
$$

  *****  SOME NATIONAL WEATHER *****

CITY           SKY/WX    TMP DP  RH WIND       PRES   REMARKS
LA GUARDIA NY  MOCLDY    76  71  85 W9        29.77R
RALEIGH NC     FAIR      75  73  93 SW7       29.89S
ATLANTA GA     FAIR      75  71  87 W7        29.98S
NEW ORLEANS LA MOCLDY    80  77  90 E3        29.98S
OKLAHOMA CITY  CLOUDY    71  69  93 NE10      30.08S
ALBUQUERQUE NM FAIR      66  58  75 E15       30.29F
SALT LAKE CITY FAIR      72  54  53 S8        30.13F
LOS ANGELES CA CLOUDY    68  64  87 W7        29.96F
BOISE ID       FAIR      70  40  33 SE8       30.00R
SEATTLE WA     FAIR      59  57  93 S5        30.06R
$$

*** WEATHER ACROSS MANITOBA...SASKATCHEWAN AND ONTARIO ***
                ***ONTARIO***

CITY           SKY/WX    TMP DP  RH WIND       PRES   REMARKS
GERALDTON      CLOUDY    48  43  81 NW9G20    29.87R
THUNDER BAY    PTCLDY    46  45  93 W7        29.97R
SIOUX LOOKOUT  PTCLDY    41  39  93 N3        30.06R
TORONTO        CLEAR     57  52  82 SW8       29.83R
BIG TROUT LK   CLEAR     37  37 100 N7        30.04R
PICKLE LAKE    PTCLDY    41  36  81 NW6       30.02
DRYDEN         CLEAR     46  45  93 N3        30.07R
KENORA         PTCLDY    48  46  93 N3        30.08R
$$
                *** MANITOBA***

CITY           SKY/WX    TMP DP  RH WIND       PRES   REMARKS
BRANDON        PTCLDY    50  48  93 E5        30.04S
DAUPHIN        CLOUDY    57  54  88 E6        30.04S
ISLAND LAKE    PTCLDY    48  43  81 N6        30.12R
PILOT MOUND      N/A     48  46  93 S7          N/A
THE PAS        LGT RAIN  57  52  82 SE9       30.07R
THOMPSON       PTCLDY    28  27  93 CALM      30.14R
WINNIPEG       LGT RAIN  50  50 100 CALM      30.09S
LYNN LAKE      FOG       43  43 100 E2        30.11R VSB 1/4
CHURCHILL      CLEAR     45  41  87 W7        30.09R
GILLAM         CLOUDY    34  34 100 E2        30.12R
$$
                ***SASKATCHEWAN***

CITY           SKY/WX    TMP DP  RH WIND       PRES   REMARKS
ESTEVAN        PTCLDY    52  43  71 S5        30.01F
KINDERSLEY     PTCLDY    52  48  87 NE9       29.97S
LLOYDMINSTER   FOG       50  50 100 E2        29.99S VSB 1/2
PRINCE ALBERT  PTCLDY    43  43 100 E2        30.03R
REGINA         CLEAR     50  41  71 SE7       29.97S
YORKTON        MOCLDY    50  48  93 NE3       29.99S



USA.gov is the U.S. government's official web portal to all federal, state and local government web resources and services.